Regional Weather Roundup
Issued by NWS Bismarck, ND

Home | Current Version | Previous Version | Text Only | Print | Product List | Glossary On
Versions: 1 2 3 4 5 6 7 8 9 10 11 12 13 14 15 16 17 18 19 20 21 22 23 24 25 26 27 28 29 30 31 32 33 34 35 36 37 38 39 40 41 42 43 44 45 46 47 48 49 50
000
ASUS43 KBIS 301110
RWRBIS

NWR BROADCAST TEXT
NATIONAL WEATHER SERVICE BISMARCK ND
600 AM CDT SAT APR 30 2016

NOTE: "FAIR" INDICATES FEW OR NO CLOUDS BELOW 12,000 FEET WITH NO
SIGNIFICANT WEATHER AND/OR OBSTRUCTIONS TO VISIBILITY.


CITY           SKY/WX    TMP DP  RH WIND       PRES   REMARKS
WILLISTON      CLEAR     38  29  70 VRB3      30.22R
MINOT          CLEAR     39  26  59 CALM      30.24R
MINOT AFB      CLEAR     34  26  73 E7        30.23R
BISMARCK       CLEAR     39  32  76 NE10      30.16R
DICKINSON      PTCLDY    34  27  75 E9        30.13R
GARRISON         N/A     38  30  73 NE6       30.20R
HETTINGER ARPT CLOUDY    40  32  73 NE10      30.11R
JAMESTOWN      CLEAR     39  32  76 E10       30.16R
BEACH          CLOUDY    32  32 100 E8        30.19R
CARRINGTON     FAIR      37  32  81 NE10      30.21R
HAZEN          FAIR      32  28  86 NE6       30.21R
LINTON         FAIR      37  36  93 E8        30.13S
MANDAN         FAIR      37  32  81 NE8       30.16R
OAKES            N/A    N/A N/A N/A MISG        N/A
RUGBY          FAIR      34  28  80 E9        30.24R
STANLEY        FAIR      36  30  80 NE6       30.25R
TIOGA          FAIR      34  32  93 E5        30.28R
WATFORD CITY   FAIR      32  28  86 E3        30.21R
$$

CITY           SKY/WX    TMP DP  RH WIND       PRES   REMARKS
GRAND FORKS    CLEAR     37  30  75 E9        30.24R
GRAND FORKS AF CLEAR     31  28  86 N6        30.24R
DEVILS LAKE    CLEAR     37  31  78 NE8       30.23R
FARGO          CLEAR     41  30  65 E9        30.19R
CANDO          FAIR      36  27  69 NE9       30.28R
CAVALIER       FAIR      36  28  75 N5        30.29R
GRAFTON        FAIR      34  30  86 N7        30.29R
GWINNER        FAIR      37  34  87 NE8       30.15R
LANGDON        FAIR      36  27  69 NE8       30.27R
ROLLA          FAIR      32  23  69 N8        30.28R
WALHALLA       FAIR      32  30  93 NW5       30.30R
$$

CITY           SKY/WX    TMP DP  RH WIND       PRES   REMARKS
ABERDEEN       PTCLDY    42  36  79 NE12      30.08R
MOBRIDGE       CLOUDY    42  39  89 N12       30.05S
BUFFALO          N/A     40  34  79 NE7       30.03R
RAPID CITY     CLOUDY    39  37  92 N14       30.03R
GLASGOW        CLOUDY    43  32  65 E12       30.16R
SIDNEY         CLOUDY    39  28  65 N6        30.20R
WOLF POINT     CLEAR     38  31  76 E7        30.19R
GLENDIVE       CLOUDY    39  32  75 NE9       30.18R
MILES CITY     CLOUDY    44  37  76 NE7       30.12R
BAKER          CLOUDY    40  33  76 NE6       30.13R
$$

CITY           SKY/WX    TMP DP  RH WIND       PRES   REMARKS
BILLINGS       CLOUDY    41  36  82 NE7       30.07R
GREAT FALLS    CLOUDY    36  34  92 W5        30.08R
REGINA         CLEAR     37  23  56 SE12      30.28R
ESTEVAN        CLEAR     28  23  80 NE7       30.26R
$$




USA.gov is the U.S. government's official web portal to all federal, state and local government web resources and services.